Flag for Norway Weather past 2 weeks in Stavanger, Norway

Now
50 °F

Sunny.


Feels Like: 48 °F
Forecast: 41 / 54 °F
Wind: 6 mph from Northwest

Location: Stavanger / Sola


UV Index: 0 (Low)

Visibility: 10 mi


Pressure: 30.24 "Hg

Humidity: 71%

Dew point: 41 °F

Location of StavangerLocation

Historic Weather in Stavanger

°F

Stavanger temperature yesterday

Maximum temperature yesterday: 50 °F (at 12:50 PM)
Minimum temperature yesterday: 41 °F (at 5:50 AM)
Average temperature yesterday: 46 °F

Past Weeks' High & Low Weather Summary

 TemperatureHumidityPressure
High57 °F (Apr 7, 2:50 PM)100% (Apr 7, 12:20 AM)30.36 "Hg (Apr 7, 12:20 AM)
Low36 °F (Apr 19, 4:50 AM)18% (Apr 5, 2:50 AM)29.42 "Hg (Apr 8, 4:50 AM)
Average46 °F70%29.88 "Hg
* Reported Apr 4 6:20 PM — Apr 19 6:50 PM, Stavanger, Weather by CustomWeather, © 2014

Note: Actual official high and low records may vary slightly from our data, if they occured in-between our weather recording intervals... More about our weather records

Advertising

Historic Weather Conditions — Data for Previous 24 hours

 ConditionsComfort  
Time TempWeatherWind HumidityBarometerVisibility
6:50 PM
Apr 19
50 °FSunny.6 mph71%30.27 "Hg10 mi
6:20 PM50 °FSunny.7 mph71%30.27 "Hg10 mi
5:50 PM50 °FPassing clouds.5 mph71%30.27 "HgN/A
5:20 PM50 °FSunny.7 mph71%30.27 "Hg10 mi
4:50 PM50 °FPassing clouds.7 mph71%30.27 "HgN/A
4:20 PM50 °FPassing clouds.8 mph71%30.30 "HgN/A
3:50 PM52 °FPassing clouds.8 mph67%30.30 "HgN/A
3:20 PM52 °FPassing clouds.8 mph62%30.30 "HgN/A
2:50 PM54 °FPassing clouds.8 mph58%30.30 "HgN/A
2:20 PM54 °FPassing clouds.10 mph58%30.30 "HgN/A
1:50 PM54 °FPassing clouds.10 mph58%30.30 "HgN/A
1:20 PM55 °FSunny.9 mph55%30.30 "Hg10 mi
12:50 PM54 °FSunny.8 mph58%30.30 "Hg10 mi
12:20 PM54 °FPassing clouds.6 mph58%30.30 "HgN/A
11:50 AM54 °FSunny.3 mph58%30.30 "Hg10 mi
11:20 AM54 °FPassing clouds.5 mph54%30.30 "HgN/A
10:50 AM54 °FSunny.7 mph54%30.27 "Hg10 mi
10:20 AM54 °FSunny.8 mph58%30.27 "Hg10 mi
9:50 AM52 °FSunny.6 mph58%30.27 "Hg10 mi
9:20 AM48 °FSunny.6 mph66%30.27 "Hg10 mi
8:50 AM45 °FSunny.7 mph76%30.27 "Hg10 mi
8:20 AM41 °FSunny.1 mph81%30.27 "Hg10 mi
7:50 AM37 °FSunny.2 mph93%30.27 "Hg10 mi
7:20 AM37 °FSunny.No wind93%30.27 "Hg10 mi
6:50 AM36 °FClear.1 mph93%30.24 "Hg10 mi
6:20 AM36 °FClear.3 mph93%30.24 "Hg10 mi
5:50 AM36 °FClear.1 mph93%30.24 "Hg10 mi
5:20 AM36 °FClear.No wind87%30.24 "Hg10 mi
4:50 AM36 °FClear.No wind93%30.24 "Hg10 mi
3:50 AM37 °FClear.No wind93%30.21 "Hg10 mi
2:50 AM37 °FClear.No wind87%30.24 "Hg10 mi
1:50 AM37 °FClear.2 mph93%30.21 "Hg10 mi
12:50 AM39 °FClear.No wind87%30.21 "Hg10 mi
11:50 PM
Apr 18
41 °FClear.3 mph87%30.18 "Hg10 mi
10:50 PM41 °FClear.6 mph87%30.18 "Hg10 mi
10:20 PM43 °FClear.2 mph81%30.15 "Hg10 mi
9:50 PM45 °FSunny.7 mph76%30.15 "Hg10 mi
9:20 PM45 °FSunny.7 mph76%30.12 "Hg10 mi
8:50 PM46 °FSunny.6 mph71%30.12 "Hg10 mi
8:20 PM46 °FSunny.7 mph71%30.09 "Hg10 mi
Weather by CustomWeather, © 2014

See weather overview